Theta_e
341 340 340 339 340 343 343 343 346 344 344 344 345 343 340 335 333 329 325 322 321 322
343 342 342 343 346 346 345 345 345 348 346 344 343 337 329 326 323 323 321 319 319 319
345 344 344 345 345 345 346 348 348 345 339 333 331 328 323 320 318 316 317 318 317 316
346 349 348 347 347 346 348 346 343 336 329 324 320 318 316 315 314 315 315 316 315 315
346 348 348 347 347 348 346 344 336 327 320 318 316 314 312 311 312 314 315 315 314 313
346 347 347 347 349 349 342 335 327 320 316 314 312 311 309 308 310 312 314 315 314 312
346 347 347 349 348 341 335 326 320 317 314 312 310 309 307 309 310 312 315 316 314 311
347 348 348 345 337 334 327 321 317 313 311 310 310 313 308 309 310 312 311 312 312 310
348 344 342 338 332 328 321 318 316 311 309 308 311 315 319 311 309 310 309 307 306 306
343 339 336 331 330 324 319 317 312 309 307 305 306 314 316 316 309 307 306 304 303 304
340 334 331 330 329 324 319 315 311 307 306 304 307 312 312 312 305 306 305 304 302 301
337 332 330 328 326 323 319 314 310 307 305 303 303 310 310 305 303 303 303 304 304 304
335 332 329 327 324 320 320 316 312 307 305 307 302 308 307 304 302 300 300 301 302 307
332 331 328 325 321 319 318 316 311 307 303 302 302 303 306 306 301 300 298 299 298 299
Wind_Speed
11 7 6 6 4 4 3 3 2 3 4 2 1 5 5 4 4 5 5 7 5 3
9 9 7 6 4 4 3 2 3 2 3 5 6 7 6 5 6 5 5 5 5 3
10 8 6 5 6 5 3 2 4 5 6 7 8 6 6 5 5 5 3 3 5 4
9 8 6 6 5 4 3 4 5 7 8 7 7 6 6 5 5 6 5 4 5 5
7 7 7 6 5 6 5 5 8 8 8 7 6 5 6 5 4 5 5 4 5 6
8 8 9 6 6 6 9 8 8 8 8 6 5 5 6 5 5 5 4 5 5 5
11 10 7 7 8 10 9 10 9 8 7 6 5 6 5 5 5 5 5 5 5 4
10 7 8 10 11 11 10 9 10 9 6 6 5 3 4 4 4 5 5 5 3 4
10 10 10 11 12 11 11 11 10 7 7 7 4 7 6 5 5 5 5 3 4 5
12 12 12 12 12 12 11 10 9 7 7 7 4 7 8 8 4 4 3 3 3 5
13 13 13 12 12 11 10 10 9 7 6 7 4 8 8 8 4 3 2 1 3 5
15 15 14 12 12 10 10 7 7 6 7 7 5 6 7 6 4 3 3 3 4 5
15 16 14 12 12 7 9 8 7 7 6 9 6 6 6 5 2 3 3 5 4 7
13 14 12 11 6 8 8 9 7 8 5 6 5 4 6 4 2 2 2 3 4 4
Wind_Direction
215 219 227 224 221 245 244 250 295 267 269 273 67 66 64 60 56 62 58 44 28 31
209 213 221 225 217 231 258 276 263 241 65 59 60 73 75 66 54 45 44 37 43 51
204 202 205 201 226 239 277 220 131 91 76 70 72 71 65 56 43 59 37 58 57 38
192 190 183 197 212 197 161 155 113 98 90 82 73 62 75 78 49 67 59 45 53 50
169 171 184 195 187 176 163 113 108 107 98 90 80 68 71 68 60 68 67 61 63 44
165 174 195 174 164 138 125 116 109 105 97 86 75 69 58 66 55 46 40 78 78 55
177 188 174 153 135 132 131 122 112 105 102 91 73 59 57 71 55 52 66 90 80 64
178 154 136 138 135 131 120 118 116 115 96 89 69 49 78 71 72 90 71 62 48 31
148 138 143 136 138 129 126 124 121 113 112 94 65 45 75 96 83 86 77 47 15 344
145 144 144 139 134 131 133 128 122 119 115 99 72 58 72 86 101 88 64 54 2 326
146 143 142 140 135 135 138 139 136 131 125 106 65 63 80 90 92 71 43 354 310 312
150 146 145 143 142 142 137 136 138 139 126 111 79 79 83 79 78 57 8 345 300 296
148 147 150 143 147 141 144 137 132 127 121 122 109 77 94 91 93 65 360 340 342 339
143 144 141 138 129 132 135 129 131 119 123 119 125 93 72 78 80 87 359 340 334 333